Regional Weather Roundup
Issued by NWS Kansas City/Pleasant Hill, MO

Home | Current Version | Previous Version | Graphics & Text | Print | Product List | Glossary Off
Versions: 1 2 3 4 5 6 7 8 9 10 11 12 13 14 15 16 17 18 19 20 21 22 23 24 25 26 27 28

000
ASUS43 KEAX 021810
RWREAX

WEATHER ROUNDUP FOR EASTERN KANSAS AND NORTHWEST MISSOURI
NATIONAL WEATHER SERVICE KANSAS CITY/PLEASANT HILL MO
100 PM CDT MON MAY 02 2016

KSZ040-057-103>105-MOZ028-029-037-043-021900-
...KANSAS CITY METROPOLITAN AREA...

CITY           SKY/WX    TMP DP  RH WIND       PRES   REMARKS
K.C. INTL      CLOUDY    53  45  74 N6        30.11F
6HR MIN TEMP:  47; 6HR MAX TEMP:  53;

K.C. DOWNTOWN  CLOUDY    53  46  77 N5        30.11S
6HR MIN TEMP:  50; 6HR MAX TEMP:  54;

LEES SUMMIT    LGT RAIN  52  44  74 N6        30.11S
6HR MIN TEMP:  48; 6HR MAX TEMP:  53; 6HR PCP: TRACE;

OLATHE - IXD   CLOUDY    53  44  71 NW10      30.12F
6HR MIN TEMP:  48; 6HR MAX TEMP:  54;

OLATHE - OJC   CLOUDY    53  42  66 N7        30.11F
6HR MIN TEMP:  47; 6HR MAX TEMP:  53;

LAWRENCE       CLOUDY    56  44  64 N7        30.12S

$$

MOZ001>008-011>017-020>025-030>033-038>040-044>046-053-054-021900-
...NORTHERN AND CENTRAL MISSOURI...

CITY           SKY/WX    TMP DP  RH WIND       PRES   REMARKS
ST. JOSEPH     CLOUDY    56  45  66 NE8       30.12S
6HR MIN TEMP:  49; 6HR MAX TEMP:  56;

MOSBY          CLOUDY    52  45  76 N3        30.11F
WARRENSBURG    CLOUDY    52  45  76 N6        30.10S
WHITEMAN AFB   CLOUDY    54  46  76 N6        30.09
6HR MIN TEMP:  48; 6HR MAX TEMP:  53; 6HR PCP: TRACE;

CLINTON        CLOUDY    54  46  76 NW6       30.11S
SEDALIA        CLOUDY    53  46  77 N8        30.10F
6HR MIN TEMP:  49; 6HR MAX TEMP:  54; 6HR PCP: TRACE;

WARSAW         NOT AVBL
CHILLICOTHE      N/A     57  46  66 NE3       30.10F
6HR MIN TEMP:  47; 6HR MAX TEMP:  57;

KIRKSVILLE     CLOUDY    55  45  68 N9        30.09S
6HR MIN TEMP:  48; 6HR MAX TEMP:  56;


$$

MOZ041-047>049-056>058-063>065-088>090-097-021900-
...EASTERN AND SOUTHERN MISSOURI...

CITY           SKY/WX    TMP DP  RH WIND       PRES   REMARKS
ST. LOUIS INTL CLOUDY    56  47  71 NW7       30.06F
6HR MIN TEMP:  52; 6HR MAX TEMP:  57; 6HR PCP: TRACE;

SPIRIT OF STL  CLOUDY    55  48  76 W5        30.06F
COLUMBIA       CLOUDY    53  46  77 NE3       30.08F
JEFFERSON CITY CLOUDY    55  45  68 CALM      30.07F
ROLLA          CLOUDY    52  46  80 NW5       30.06F
OSAGE BEACH    CLOUDY    54  39  58 W7        30.09F
SPRINGFIELD    CLOUDY    54  45  71 NW5       30.09S
BRANSON        CLOUDY    55  46  71 CALM      30.09F
JOPLIN         CLOUDY    53  45  74 NW10      30.12F
WEST PLAINS      N/A     62  46  55 NW9       30.06F

$$

IAZ060-094-KSZ022-034>040-054-083-096-NEZ052-066-093-021900-
...KANSAS...SOUTHEAST NEBRASKA AND IOWA...

CITY           SKY/WX    TMP DP  RH WIND       PRES   REMARKS
TOPEKA         CLOUDY    58  43  57 N9        30.12S
6HR MIN TEMP:  48; 6HR MAX TEMP:  58;

MANHATTAN      CLOUDY    59  38  45 N6        30.14F
EMPORIA        CLOUDY    56  41  57 NW10      30.13F
CHANUTE        CLOUDY    56  43  61 N6        30.13F
WICHITA        CLOUDY    59  42  53 N13       30.16F
OMAHA          MOSUNNY   60  42  51 NW6       30.11F
LINCOLN        PTSUNNY   60  38  43 N6        30.13F
FALLS CITY     CLOUDY    59  45  59 CALM      30.12S
LAMONI         CLOUDY    57  45  64 NE13      30.10S
DES MOINES     MOSUNNY   60  41  49 VRB5      30.09F

$$





USA.gov is the U.S. government's official web portal to all federal, state and local government web resources and services.